START_TIME,STEP,MOV.,E45,t_acc.,ALAR?,t_acc.,A12,t_acc.,A24,t_acc.
1986-01-24 00:00:03.830 ,4,0,0.,4.8,36.,4.8,0.,4.8,0.,4.8
1986-01-24 00:00:08.630 ,4,0,0.,4.8,27.,4.8,0.,4.8,0.,4.8
1986-01-24 00:00:13.430 ,4,0,0.,4.8,27.,4.8,0.,4.8,0.,4.8
1986-01-24 00:00:18.230 ,4,0,0.,4.8,23.,4.8,0.,4.8,0.,4.8
1986-01-24 00:00:23.030 ,4,0,0.,4.8,28.,4.8,0.,4.8,0.,4.8
1986-01-24 00:00:27.830 ,4,0,0.,4.8,25.,4.8,0.,4.8,0.,4.8
1986-01-24 00:00:32.630 ,4,0,0.,4.8,24.,4.8,0.,4.8,0.,4.8
1986-01-24 00:00:37.430 ,4,0,0.,4.8,17.,4.8,0.,4.8,0.,4.8
1986-01-24 00:00:42.230 ,4,0,0.,4.8,31.,4.8,0.,4.8,0.,4.8
1986-01-24 00:00:47.030 ,4,0,0.,4.8,27.,4.8,0.,4.8,0.,4.8
1986-01-24 00:00:51.830 ,3,0,0.,4.8,30.,4.8,0.,4.8,0.,4.8
1986-01-24 00:00:56.630 ,3,0,0.,4.8,28.,4.8,0.,4.8,0.,4.8
1986-01-24 00:01:01.430 ,3,0,0.,4.8,28.,4.8,0.,4.8,0.,4.8
1986-01-24 00:01:06.230 ,3,0,0.,4.8,23.,4.8,0.,4.8,0.,4.8
1986-01-24 00:01:11.030 ,3,0,0.,4.8,21.,4.8,0.,4.8,0.,4.8
1986-01-24 00:01:15.830 ,3,0,0.,4.8,27.,4.8,0.,4.8,0.,4.8
1986-01-24 00:01:20.630 ,3,0,0.,4.8,24.,4.8,0.,4.8,0.,4.8
1986-01-24 00:01:25.430 ,3,0,0.,4.8,21.,4.8,0.,4.8,0.,4.8
1986-01-24 00:01:30.230 ,3,0,0.,4.8,22.,4.8,0.,4.8,0.,4.8
1986-01-24 00:01:35.030 ,3,0,0.,4.8,27.,4.8,0.,4.8,0.,4.8
1986-01-24 00:01:39.830 ,2,0,0.,4.8,27.,4.8,0.,4.8,0.,4.8
1986-01-24 00:01:44.630 ,2,0,0.,4.8,29.,4.8,1.,4.8,0.,4.8
1986-01-24 00:01:49.430 ,2,0,0.,4.8,22.,4.8,0.,4.8,0.,4.8
1986-01-24 00:01:54.230 ,2,0,0.,4.8,27.,4.8,0.,4.8,0.,4.8
1986-01-24 00:01:59.030 ,2,0,0.,4.8,28.,4.8,0.,4.8,0.,4.8
1986-01-24 00:02:03.830 ,2,0,0.,4.8,28.,4.8,0.,4.8,0.,4.8
1986-01-24 00:02:08.630 ,2,0,0.,4.8,26.,4.8,0.,4.8,0.,4.8
1986-01-24 00:02:13.430 ,2,0,0.,4.8,27.,4.8,0.,4.8,0.,4.8
1986-01-24 00:02:18.230 ,2,0,0.,4.8,29.,4.8,0.,4.8,0.,4.8
1986-01-24 00:02:23.030 ,2,0,0.,4.8,34.,4.8,0.,4.8,0.,4.8
1986-01-24 00:02:27.830 ,1,0,0.,4.8,24.,4.8,0.,4.8,0.,4.8
1986-01-24 00:02:32.630 ,1,0,0.,4.8,33.,4.8,0.,4.8,0.,4.8
1986-01-24 00:02:37.430 ,1,0,0.,4.8,24.,4.8,0.,4.8,0.,4.8
1986-01-24 00:02:42.230 ,1,0,0.,4.8,30.,4.8,0.,4.8,0.,4.8
1986-01-24 00:02:47.030 ,1,0,0.,4.8,23.,4.8,0.,4.8,0.,4.8
1986-01-24 00:02:51.830 ,1,0,0.,4.8,26.,4.8,0.,4.8,0.,4.8
1986-01-24 00:02:56.630 ,1,0,0.,4.8,26.,4.8,0.,4.8,0.,4.8
1986-01-24 00:03:01.430 ,1,0,0.,4.8,17.,4.8,0.,4.8,0.,4.8
1986-01-24 00:03:06.230 ,1,0,0.,4.8,16.,4.8,0.,4.8,0.,4.8
1986-01-24 00:03:11.030 ,1,0,0.,4.8,23.,4.8,0.,4.8,0.,4.8
1986-01-24 00:03:15.830 ,0,0,0.,4.8,28.,4.8,0.,4.8,0.,4.8
1986-01-24 00:03:20.630 ,0,0,0.,4.8,25.,4.8,0.,4.8,0.,4.8
1986-01-24 00:03:25.430 ,0,0,0.,4.8,32.,4.8,0.,4.8,0.,4.8
1986-01-24 00:03:30.230 ,0,0,0.,4.8,21.,4.8,0.,4.8,0.,4.8
1986-01-24 00:03:35.030 ,0,0,0.,4.8,28.,4.8,0.,4.8,0.,4.8
1986-01-24 00:03:39.830 ,0,0,0.,4.8,21.,4.8,0.,4.8,0.,4.8
1986-01-24 00:03:44.630 ,0,0,0.,4.8,30.,4.8,0.,4.8,0.,4.8
1986-01-24 00:03:49.430 ,0,0,0.,4.8,24.,4.8,0.,4.8,0.,4.8
1986-01-24 00:03:54.230 ,0,0,0.,4.8,21.,4.8,0.,4.8,0.,4.8
1986-01-24 00:03:59.030 ,0,0,0.,4.8,18.,4.8,0.,4.8,0.,4.8
1986-01-24 00:04:03.830 ,0,0,0.,4.8,32.,4.8,0.,4.8,0.,4.8
1986-01-24 00:04:08.630 ,0,0,0.,4.8,20.,4.8,0.,4.8,0.,4.8
1986-01-24 00:04:13.430 ,0,0,0.,4.8,22.,4.8,0.,4.8,0.,4.8
1986-01-24 00:04:18.230 ,0,0,0.,4.8,22.,4.8,0.,4.8,0.,4.8
1986-01-24 00:04:23.030 ,0,0,0.,4.8,25.,4.8,0.,4.8,0.,4.8
1986-01-24 00:04:27.830 ,0,0,0.,4.8,16.,4.8,0.,4.8,0.,4.8
1986-01-24 00:04:32.630 ,0,0,0.,4.8,30.,4.8,0.,4.8,0.,4.8
1986-01-24 00:04:37.430 ,0,0,0.,4.8,28.,4.8,0.,4.8,0.,4.8
1986-01-24 00:04:42.230 ,0,0,0.,4.8,31.,4.8,0.,4.8,0.,4.8
1986-01-24 00:04:47.030 ,0,0,0.,4.8,23.,4.8,0.,4.8,0.,4.8
1986-01-24 00:04:51.830 ,1,0,0.,4.8,30.,4.8,0.,4.8,0.,4.8
1986-01-24 00:04:56.630 ,1,0,0.,4.8,32.,4.8,0.,4.8,0.,4.8
1986-01-24 00:05:01.430 ,1,0,0.,4.8,27.,4.8,0.,4.8,0.,4.8
1986-01-24 00:05:06.230 ,1,0,0.,4.8,19.,4.8,0.,4.8,0.,4.8
1986-01-24 00:05:11.030 ,1,0,0.,4.8,29.,4.8,0.,4.8,0.,4.8
1986-01-24 00:05:15.830 ,1,0,0.,4.8,17.,4.8,0.,4.8,0.,4.8
1986-01-24 00:05:20.630 ,1,0,0.,4.8,22.,4.8,0.,4.8,0.,4.8
1986-01-24 00:05:25.430 ,1,0,0.,4.8,30.,4.8,0.,4.8,0.,4.8
1986-01-24 00:05:30.230 ,1,0,0.,4.8,30.,4.8,0.,4.8,0.,4.8
1986-01-24 00:05:35.030 ,1,0,0.,4.8,20.,4.8,0.,4.8,0.,4.8
1986-01-24 00:05:39.830 ,2,0,0.,4.8,27.,4.8,1.,4.8,0.,4.8
1986-01-24 00:05:44.630 ,2,0,0.,4.8,26.,4.8,0.,4.8,0.,4.8
1986-01-24 00:05:49.430 ,2,0,0.,4.8,27.,4.8,0.,4.8,0.,4.8
1986-01-24 00:05:54.230 ,2,0,0.,4.8,28.,4.8,0.,4.8,0.,4.8
1986-01-24 00:05:59.030 ,2,0,0.,4.8,22.,4.8,0.,4.8,0.,4.8
1986-01-24 00:06:03.830 ,2,0,0.,4.8,22.,4.8,0.,4.8,0.,4.8
1986-01-24 00:06:08.630 ,2,0,0.,4.8,25.,4.8,0.,4.8,0.,4.8
1986-01-24 00:06:13.430 ,2,0,0.,4.8,23.,4.8,0.,4.8,0.,4.8
1986-01-24 00:06:18.230 ,2,0,0.,4.8,31.,4.8,1.,4.8,0.,4.8
1986-01-24 00:06:23.030 ,2,0,0.,4.8,18.,4.8,0.,4.8,0.,4.8
1986-01-24 00:06:27.830 ,3,0,0.,4.8,26.,4.8,0.,4.8,0.,4.8
1986-01-24 00:06:32.630 ,3,0,0.,4.8,26.,4.8,0.,4.8,0.,4.8
1986-01-24 00:06:37.430 ,3,0,0.,4.8,26.,4.8,0.,4.8,0.,4.8
1986-01-24 00:06:42.230 ,3,0,0.,4.8,18.,4.8,0.,4.8,0.,4.8
1986-01-24 00:06:47.030 ,3,0,0.,4.8,24.,4.8,0.,4.8,0.,4.8
1986-01-24 00:06:51.830 ,3,0,0.,4.8,25.,4.8,0.,4.8,0.,4.8
1986-01-24 00:06:56.630 ,3,0,0.,4.8,21.,4.8,0.,4.8,0.,4.8
1986-01-24 00:07:01.430 ,3,0,0.,4.8,31.,4.8,0.,4.8,0.,4.8
1986-01-24 00:07:06.230 ,3,0,0.,4.8,26.,4.8,0.,4.8,0.,4.8
1986-01-24 00:07:11.030 ,3,0,0.,4.8,27.,4.8,0.,4.8,0.,4.8
1986-01-24 00:07:15.830 ,4,0,0.,4.8,26.,4.8,0.,4.8,0.,4.8
1986-01-24 00:07:20.630 ,4,0,0.,4.8,31.,4.8,0.,4.8,0.,4.8
1986-01-24 00:07:25.430 ,4,0,0.,4.8,27.,4.8,0.,4.8,0.,4.8
1986-01-24 00:07:30.230 ,4,0,0.,4.8,22.,4.8,1.,4.8,0.,4.8
1986-01-24 00:07:35.030 ,4,0,0.,4.8,24.,4.8,0.,4.8,0.,4.8
1986-01-24 00:07:39.830 ,4,0,0.,4.8,32.,4.8,0.,4.8,0.,4.8
1986-01-24 00:07:44.630 ,4,0,0.,4.8,27.,4.8,0.,4.8,0.,4.8
1986-01-24 00:07:49.430 ,4,0,0.,4.8,25.,4.8,0.,4.8,0.,4.8
1986-01-24 00:07:54.230 ,4,0,0.,4.8,25.,4.8,0.,4.8,0.,4.8
1986-01-24 00:07:59.030 ,4,0,0.,4.8,31.,4.8,0.,4.8,0.,4.8
1986-01-24 00:08:03.830 ,5,0,0.,4.8,24.,4.8,0.,4.8,0.,4.8
1986-01-24 00:08:08.630 ,5,0,0.,4.8,24.,4.8,0.,4.8,0.,4.8
1986-01-24 00:08:13.430 ,5,0,0.,4.8,24.,4.8,0.,4.8,0.,4.8
1986-01-24 00:08:18.230 ,5,0,0.,4.8,21.,4.8,0.,4.8,0.,4.8
1986-01-24 00:08:23.030 ,5,0,0.,4.8,25.,4.8,0.,4.8,0.,4.8
1986-01-24 00:08:27.830 ,5,0,0.,4.8,28.,4.8,0.,4.8,0.,4.8
1986-01-24 00:08:32.630 ,5,0,0.,4.8,27.,4.8,0.,4.8,0.,4.8
1986-01-24 00:08:37.430 ,5,0,0.,4.8,20.,4.8,0.,4.8,0.,4.8
1986-01-24 00:08:42.230 ,5,0,0.,4.8,38.,4.8,0.,4.8,0.,4.8
1986-01-24 00:08:47.030 ,5,0,0.,4.8,23.,4.8,0.,4.8,0.,4.8
1986-01-24 00:08:51.830 ,6,0,0.,4.8,18.,4.8,0.,4.8,0.,4.8
1986-01-24 00:08:56.630 ,6,0,0.,4.8,24.,4.8,0.,4.8,0.,4.8
1986-01-24 00:09:01.430 ,6,0,0.,4.8,30.,4.8,0.,4.8,0.,4.8
1986-01-24 00:09:06.230 ,6,0,0.,4.8,22.,4.8,1.,4.8,0.,4.8
1986-01-24 00:09:11.030 ,6,0,0.,4.8,31.,4.8,0.,4.8,0.,4.8
1986-01-24 00:09:15.830 ,6,0,0.,4.8,29.,4.8,0.,4.8,0.,4.8
1986-01-24 00:09:20.630 ,6,0,0.,4.8,26.,4.8,0.,4.8,0.,4.8
1986-01-24 00:09:25.430 ,6,0,0.,4.8,26.,4.8,0.,4.8,0.,4.8
1986-01-24 00:09:30.230 ,6,0,0.,4.8,17.,4.8,0.,4.8,0.,4.8
1986-01-24 00:09:35.030 ,6,0,0.,4.8,15.,4.8,0.,4.8,0.,4.8
1986-01-24 00:09:39.830 ,7,0,0.,4.8,21.,4.8,0.,4.8,0.,4.8
1986-01-24 00:09:44.630 ,7,0,0.,4.8,29.,4.8,0.,4.8,0.,4.8
1986-01-24 00:09:49.430 ,7,0,0.,4.8,24.,4.8,0.,4.8,0.,4.8
1986-01-24 00:09:54.230 ,7,0,0.,4.8,27.,4.8,0.,4.8,0.,4.8
1986-01-24 00:09:59.030 ,7,0,0.,4.8,28.,4.8,0.,4.8,0.,4.8
1986-01-24 00:10:03.830 ,7,0,0.,4.8,29.,4.8,0.,4.8,0.,4.8
1986-01-24 00:10:08.630 ,7,0,0.,4.8,21.,4.8,0.,4.8,0.,4.8
1986-01-24 00:10:13.430 ,7,0,0.,4.8,17.,4.8,0.,4.8,0.,4.8
1986-01-24 00:10:18.230 ,7,0,0.,4.8,24.,4.8,0.,4.8,0.,4.8
1986-01-24 00:10:23.030 ,7,0,0.,4.8,27.,4.8,0.,4.8,0.,4.8
1986-01-24 00:10:27.830 ,7,0,0.,4.8,24.,4.8,0.,4.8,0.,4.8
1986-01-24 00:10:32.630 ,7,0,0.,4.8,33.,4.8,0.,4.8,0.,4.8
1986-01-24 00:10:37.430 ,7,0,0.,4.8,13.,4.8,0.,4.8,0.,4.8
1986-01-24 00:10:42.230 ,7,0,0.,4.8,31.,4.8,0.,4.8,0.,4.8
1986-01-24 00:10:47.030 ,7,0,0.,4.8,24.,4.8,0.,4.8,0.,4.8
1986-01-24 00:10:51.830 ,7,0,0.,4.8,24.,4.8,0.,4.8,0.,4.8
1986-01-24 00:10:56.630 ,7,0,0.,4.8,30.,4.8,0.,4.8,0.,4.8
1986-01-24 00:11:01.430 ,7,0,0.,4.8,17.,4.8,0.,4.8,0.,4.8
1986-01-24 00:11:06.230 ,7,0,0.,4.8,19.,4.8,0.,4.8,0.,4.8
1986-01-24 00:11:11.030 ,7,0,0.,4.8,20.,4.8,0.,4.8,0.,4.8
1986-01-24 00:11:15.830 ,6,0,0.,4.8,32.,4.8,0.,4.8,0.,4.8
1986-01-24 00:11:20.630 ,6,0,0.,4.8,25.,4.8,0.,4.8,0.,4.8
1986-01-24 00:11:25.430 ,6,0,0.,4.8,30.,4.8,0.,4.8,0.,4.8
1986-01-24 00:11:30.230 ,6,0,0.,4.8,25.,4.8,0.,4.8,0.,4.8
1986-01-24 00:11:35.030 ,6,0,0.,4.8,43.,4.8,0.,4.8,0.,4.8
1986-01-24 00:11:39.830 ,6,0,0.,4.8,24.,4.8,0.,4.8,0.,4.8
1986-01-24 00:11:44.630 ,6,0,0.,4.8,25.,4.8,0.,4.8,0.,4.8
1986-01-24 00:11:49.430 ,6,0,0.,4.8,24.,4.8,0.,4.8,0.,4.8
1986-01-24 00:11:54.230 ,6,0,0.,4.8,26.,4.8,0.,4.8,0.,4.8
1986-01-24 00:11:59.030 ,6,0,0.,4.8,29.,4.8,0.,4.8,0.,4.8
1986-01-24 00:12:03.830 ,5,0,0.,4.8,31.,4.8,0.,4.8,0.,4.8
1986-01-24 00:12:08.630 ,5,0,0.,4.8,25.,4.8,0.,4.8,0.,4.8
1986-01-24 00:12:13.430 ,5,0,0.,4.8,28.,4.8,0.,4.8,0.,4.8
1986-01-24 00:12:18.230 ,5,0,0.,4.8,26.,4.8,0.,4.8,0.,4.8
1986-01-24 00:12:23.030 ,5,0,0.,4.8,33.,4.8,0.,4.8,0.,4.8
1986-01-24 00:12:27.830 ,5,0,0.,4.8,37.,4.8,0.,4.8,0.,4.8
1986-01-24 00:12:32.630 ,5,0,0.,4.8,27.,4.8,0.,4.8,0.,4.8
1986-01-24 00:12:37.430 ,5,0,0.,4.8,27.,4.8,1.,4.8,0.,4.8
1986-01-24 00:12:42.230 ,5,0,0.,4.8,19.,4.8,1.,4.8,0.,4.8
1986-01-24 00:12:47.030 ,5,0,0.,4.8,23.,4.8,0.,4.8,0.,4.8
1986-01-24 00:12:51.830 ,4,0,0.,4.8,44.,4.8,0.,4.8,0.,4.8
1986-01-24 00:12:56.630 ,4,0,0.,4.8,25.,4.8,0.,4.8,0.,4.8
1986-01-24 00:13:01.430 ,4,0,0.,4.8,18.,4.8,0.,4.8,0.,4.8
1986-01-24 00:13:06.230 ,4,0,0.,4.8,25.,4.8,0.,4.8,0.,4.8
1986-01-24 00:13:11.030 ,4,0,0.,4.8,32.,4.8,0.,4.8,0.,4.8
1986-01-24 00:13:15.830 ,4,0,0.,4.8,29.,4.8,0.,4.8,0.,4.8
1986-01-24 00:13:20.630 ,4,0,0.,4.8,25.,4.8,0.,4.8,0.,4.8
1986-01-24 00:13:25.430 ,4,0,0.,4.8,25.,4.8,0.,4.8,0.,4.8
1986-01-24 00:13:30.230 ,4,0,0.,4.8,25.,4.8,0.,4.8,0.,4.8
1986-01-24 00:13:35.030 ,4,0,0.,4.8,24.,4.8,0.,4.8,0.,4.8
1986-01-24 00:13:39.830 ,3,0,0.,4.8,31.,4.8,0.,4.8,0.,4.8
1986-01-24 00:13:44.630 ,3,0,0.,4.8,26.,4.8,0.,4.8,0.,4.8
1986-01-24 00:13:49.430 ,3,0,0.,4.8,28.,4.8,0.,4.8,0.,4.8
1986-01-24 00:13:54.230 ,3,0,0.,4.8,31.,4.8,0.,4.8,0.,4.8
1986-01-24 00:13:59.030 ,3,0,0.,4.8,38.,4.8,1.,4.8,0.,4.8
1986-01-24 00:14:03.830 ,3,0,0.,4.8,35.,4.8,0.,4.8,0.,4.8
1986-01-24 00:14:08.630 ,3,0,0.,4.8,25.,4.8,0.,4.8,0.,4.8
1986-01-24 00:14:13.430 ,3,0,0.,4.8,25.,4.8,0.,4.8,0.,4.8
1986-01-24 00:14:18.230 ,3,0,0.,4.8,18.,4.8,0.,4.8,0.,4.8
1986-01-24 00:14:23.030 ,3,0,0.,4.8,28.,4.8,0.,4.8,0.,4.8
1986-01-24 00:14:27.830 ,2,0,0.,4.8,26.,4.8,0.,4.8,0.,4.8
1986-01-24 00:14:32.630 ,2,0,0.,4.8,25.,4.8,0.,4.8,0.,4.8
1986-01-24 00:14:37.430 ,2,0,0.,4.8,18.,4.8,0.,4.8,0.,4.8
1986-01-24 00:14:42.230 ,2,0,0.,4.8,25.,4.8,0.,4.8,0.,4.8
1986-01-24 00:14:47.030 ,2,0,0.,4.8,30.,4.8,0.,4.8,0.,4.8
1986-01-24 00:14:51.830 ,2,0,0.,4.8,33.,4.8,0.,4.8,0.,4.8
1986-01-24 00:14:56.630 ,2,0,0.,4.8,39.,4.8,0.,4.8,0.,4.8
1986-01-24 00:15:01.430 ,2,0,0.,4.8,28.,4.8,0.,4.8,0.,4.8
1986-01-24 00:15:06.230 ,2,0,0.,4.8,36.,4.8,0.,4.8,0.,4.8
1986-01-24 00:15:11.030 ,2,0,0.,4.8,29.,4.8,0.,4.8,0.,4.8
1986-01-24 00:15:15.830 ,1,0,0.,4.8,33.,4.8,0.,4.8,0.,4.8
1986-01-24 00:15:20.630 ,1,0,0.,4.8,21.,4.8,0.,4.8,0.,4.8
1986-01-24 00:15:25.430 ,1,0,0.,4.8,30.,4.8,0.,4.8,0.,4.8
1986-01-24 00:15:30.230 ,1,0,0.,4.8,30.,4.8,0.,4.8,0.,4.8
1986-01-24 00:15:35.030 ,1,0,0.,4.8,34.,4.8,0.,4.8,0.,4.8
1986-01-24 00:15:39.830 ,1,0,0.,4.8,32.,4.8,0.,4.8,0.,4.8
1986-01-24 00:15:44.630 ,1,0,0.,4.8,26.,4.8,0.,4.8,0.,4.8
1986-01-24 00:15:49.430 ,1,0,0.,4.8,27.,4.8,0.,4.8,0.,4.8
1986-01-24 00:15:54.230 ,1,0,0.,4.8,28.,4.8,0.,4.8,0.,4.8
1986-01-24 00:15:59.030 ,1,0,0.,4.8,19.,4.8,0.,4.8,0.,4.8
1986-01-24 00:16:03.830 ,0,0,0.,4.8,26.,4.8,0.,4.8,0.,4.8
1986-01-24 00:16:08.630 ,0,0,0.,4.8,32.,4.8,0.,4.8,0.,4.8
1986-01-24 00:16:13.430 ,0,0,0.,4.8,19.,4.8,0.,4.8,0.,4.8
1986-01-24 00:16:18.230 ,0,0,0.,4.8,29.,4.8,0.,4.8,0.,4.8
1986-01-24 00:16:23.030 ,0,0,0.,4.8,26.,4.8,0.,4.8,0.,4.8
1986-01-24 00:16:27.830 ,0,0,0.,4.8,21.,4.8,0.,4.8,0.,4.8
1986-01-24 00:16:32.630 ,0,0,0.,4.8,27.,4.8,0.,4.8,0.,4.8
1986-01-24 00:16:37.430 ,0,0,0.,4.8,30.,4.8,0.,4.8,0.,4.8
1986-01-24 00:16:42.230 ,0,0,0.,4.8,20.,4.8,0.,4.8,0.,4.8
1986-01-24 00:16:47.030 ,0,0,0.,4.8,26.,4.8,0.,4.8,0.,4.8
1986-01-24 00:16:51.830 ,0,0,0.,4.8,38.,4.8,0.,4.8,0.,4.8
1986-01-24 00:16:56.630 ,0,0,0.,4.8,17.,4.8,0.,4.8,0.,4.8
1986-01-24 00:17:01.430 ,0,0,0.,4.8,30.,4.8,0.,4.8,0.,4.8
1986-01-24 00:17:06.230 ,0,0,0.,4.8,26.,4.8,1.,4.8,0.,4.8
1986-01-24 00:17:11.030 ,0,0,0.,4.8,26.,4.8,0.,4.8,0.,4.8
1986-01-24 00:17:15.830 ,0,0,0.,4.8,18.,4.8,0.,4.8,0.,4.8
1986-01-24 00:17:20.630 ,0,0,0.,4.8,27.,4.8,0.,4.8,0.,4.8
1986-01-24 00:17:25.430 ,0,0,0.,4.8,23.,4.8,0.,4.8,0.,4.8
1986-01-24 00:17:30.230 ,0,0,0.,4.8,24.,4.8,0.,4.8,0.,4.8
1986-01-24 00:17:35.030 ,0,0,0.,4.8,26.,4.8,0.,4.8,0.,4.8
1986-01-24 00:17:39.830 ,1,0,0.,4.8,29.,4.8,0.,4.8,0.,4.8
1986-01-24 00:17:44.630 ,1,0,0.,4.8,31.,4.8,0.,4.8,0.,4.8
1986-01-24 00:17:49.430 ,1,0,0.,4.8,26.,4.8,0.,4.8,0.,4.8
1986-01-24 00:17:54.230 ,1,0,0.,4.8,20.,4.8,0.,4.8,0.,4.8
1986-01-24 00:17:59.030 ,1,0,0.,4.8,29.,4.8,0.,4.8,0.,4.8
1986-01-24 00:18:03.830 ,1,0,0.,4.8,23.,4.8,0.,4.8,0.,4.8
1986-01-24 00:18:08.630 ,1,0,0.,4.8,25.,4.8,0.,4.8,0.,4.8
1986-01-24 00:18:13.430 ,1,0,0.,4.8,29.,4.8,0.,4.8,0.,4.8
1986-01-24 00:18:18.230 ,1,0,0.,4.8,26.,4.8,0.,4.8,0.,4.8
1986-01-24 00:18:23.030 ,1,0,0.,4.8,26.,4.8,0.,4.8,0.,4.8
1986-01-24 00:18:27.830 ,2,0,0.,4.8,26.,4.8,0.,4.8,0.,4.8
1986-01-24 00:18:32.630 ,2,0,0.,4.8,24.,4.8,0.,4.8,0.,4.8
1986-01-24 00:18:37.430 ,2,0,0.,4.8,30.,4.8,0.,4.8,0.,4.8
1986-01-24 00:18:42.230 ,2,0,0.,4.8,31.,4.8,0.,4.8,0.,4.8
1986-01-24 00:18:47.030 ,2,0,0.,4.8,41.,4.8,0.,4.8,0.,4.8
1986-01-24 00:18:51.830 ,2,0,0.,4.8,24.,4.8,0.,4.8,0.,4.8
1986-01-24 00:18:56.630 ,2,0,0.,4.8,18.,4.8,0.,4.8,0.,4.8
1986-01-24 00:19:01.430 ,2,0,0.,4.8,22.,4.8,0.,4.8,0.,4.8
1986-01-24 00:19:06.230 ,2,0,0.,4.8,26.,4.8,1.,4.8,0.,4.8
1986-01-24 00:19:11.030 ,2,0,0.,4.8,25.,4.8,0.,4.8,0.,4.8
1986-01-24 00:19:15.830 ,3,0,0.,4.8,21.,4.8,0.,4.8,0.,4.8
1986-01-24 00:19:20.630 ,3,0,0.,4.8,19.,4.8,0.,4.8,0.,4.8
1986-01-24 00:19:25.430 ,3,0,0.,4.8,25.,4.8,0.,4.8,0.,4.8
1986-01-24 00:19:30.230 ,3,0,0.,4.8,27.,4.8,0.,4.8,0.,4.8
1986-01-24 00:19:35.030 ,3,0,0.,4.8,26.,4.8,0.,4.8,0.,4.8
1986-01-24 00:19:39.830 ,3,0,0.,4.8,21.,4.8,0.,4.8,0.,4.8
1986-01-24 00:19:44.630 ,3,0,0.,4.8,19.,4.8,1.,4.8,0.,4.8
1986-01-24 00:19:49.430 ,3,0,0.,4.8,13.,4.8,0.,4.8,0.,4.8
1986-01-24 00:19:54.230 ,3,0,0.,4.8,28.,4.8,0.,4.8,0.,4.8
1986-01-24 00:19:59.030 ,3,0,0.,4.8,29.,4.8,0.,4.8,0.,4.8
1986-01-24 00:20:03.830 ,4,0,0.,4.8,30.,4.8,0.,4.8,0.,4.8
1986-01-24 00:20:08.630 ,4,0,0.,4.8,28.,4.8,0.,4.8,0.,4.8
1986-01-24 00:20:13.430 ,4,0,0.,4.8,22.,4.8,0.,4.8,0.,4.8
1986-01-24 00:20:18.230 ,4,0,0.,4.8,31.,4.8,0.,4.8,0.,4.8
1986-01-24 00:20:23.030 ,4,0,0.,4.8,29.,4.8,0.,4.8,0.,4.8
1986-01-24 00:20:27.830 ,4,0,0.,4.8,25.,4.8,0.,4.8,0.,4.8
1986-01-24 00:20:32.630 ,4,0,0.,4.8,24.,4.8,0.,4.8,0.,4.8
1986-01-24 00:20:37.430 ,4,0,0.,4.8,34.,4.8,0.,4.8,0.,4.8
1986-01-24 00:20:42.230 ,4,0,0.,4.8,31.,4.8,0.,4.8,0.,4.8
1986-01-24 00:20:47.030 ,4,0,0.,4.8,36.,4.8,0.,4.8,0.,4.8
1986-01-24 00:20:51.830 ,5,0,0.,4.8,24.,4.8,0.,4.8,0.,4.8
1986-01-24 00:20:56.630 ,5,0,0.,4.8,30.,4.8,0.,4.8,0.,4.8
1986-01-24 00:21:01.430 ,5,0,0.,4.8,28.,4.8,1.,4.8,0.,4.8
1986-01-24 00:21:06.230 ,5,0,0.,4.8,35.,4.8,0.,4.8,0.,4.8
1986-01-24 00:21:11.030 ,5,0,0.,4.8,22.,4.8,0.,4.8,0.,4.8
1986-01-24 00:21:15.830 ,5,0,0.,4.8,29.,4.8,0.,4.8,0.,4.8
1986-01-24 00:21:20.630 ,5,0,0.,4.8,16.,4.8,0.,4.8,0.,4.8
1986-01-24 00:21:25.430 ,5,0,0.,4.8,29.,4.8,0.,4.8,0.,4.8
1986-01-24 00:21:30.230 ,5,0,0.,4.8,24.,4.8,0.,4.8,0.,4.8
1986-01-24 00:21:35.030 ,5,0,0.,4.8,28.,4.8,0.,4.8,0.,4.8
1986-01-24 00:21:39.830 ,6,0,0.,4.8,32.,4.8,0.,4.8,0.,4.8
1986-01-24 00:21:44.630 ,6,0,0.,4.8,19.,4.8,0.,4.8,0.,4.8
1986-01-24 00:21:49.430 ,6,0,0.,4.8,20.,4.8,0.,4.8,0.,4.8
1986-01-24 00:21:54.230 ,6,0,0.,4.8,29.,4.8,0.,4.8,0.,4.8
1986-01-24 00:21:59.030 ,6,0,0.,4.8,38.,4.8,0.,4.8,0.,4.8
1986-01-24 00:22:03.830 ,6,0,0.,4.8,30.,4.8,0.,4.8,0.,4.8
1986-01-24 00:22:08.630 ,6,0,0.,4.8,34.,4.8,0.,4.8,0.,4.8
1986-01-24 00:22:13.430 ,6,0,0.,4.8,28.,4.8,0.,4.8,0.,4.8
1986-01-24 00:22:18.230 ,6,0,0.,4.8,27.,4.8,0.,4.8,0.,4.8
1986-01-24 00:22:23.030 ,6,0,0.,4.8,28.,4.8,0.,4.8,0.,4.8
1986-01-24 00:22:27.830 ,7,0,0.,4.8,28.,4.8,0.,4.8,0.,4.8
1986-01-24 00:22:32.630 ,7,0,0.,4.8,26.,4.8,0.,4.8,0.,4.8
1986-01-24 00:22:37.430 ,7,0,0.,4.8,25.,4.8,0.,4.8,0.,4.8
1986-01-24 00:22:42.230 ,7,0,0.,4.8,25.,4.8,0.,4.8,0.,4.8
1986-01-24 00:22:47.030 ,7,0,0.,4.8,30.,4.8,0.,4.8,0.,4.8
1986-01-24 00:22:51.830 ,7,0,0.,4.8,32.,4.8,0.,4.8,0.,4.8
1986-01-24 00:22:56.630 ,7,0,0.,4.8,21.,4.8,0.,4.8,0.,4.8
1986-01-24 00:23:01.430 ,7,0,0.,4.8,29.,4.8,0.,4.8,0.,4.8
1986-01-24 00:23:06.230 ,7,0,0.,4.8,28.,4.8,0.,4.8,0.,4.8
1986-01-24 00:23:11.030 ,7,0,0.,4.8,21.,4.8,0.,4.8,0.,4.8
1986-01-24 00:23:15.830 ,7,0,0.,4.8,29.,4.8,0.,4.8,0.,4.8
1986-01-24 00:23:20.630 ,7,0,0.,4.8,31.,4.8,0.,4.8,0.,4.8
1986-01-24 00:23:25.430 ,7,0,0.,4.8,22.,4.8,0.,4.8,0.,4.8
1986-01-24 00:23:30.230 ,7,0,0.,4.8,31.,4.8,0.,4.8,0.,4.8
1986-01-24 00:23:35.030 ,7,0,0.,4.8,27.,4.8,0.,4.8,0.,4.8
1986-01-24 00:23:39.830 ,7,0,0.,4.8,30.,4.8,0.,4.8,0.,4.8
1986-01-24 00:23:44.630 ,7,0,0.,4.8,28.,4.8,0.,4.8,0.,4.8
1986-01-24 00:23:49.430 ,7,0,0.,4.8,21.,4.8,0.,4.8,0.,4.8
1986-01-24 00:23:54.230 ,7,0,0.,4.8,30.,4.8,0.,4.8,0.,4.8
1986-01-24 00:23:59.030 ,7,0,0.,4.8,17.,4.8,0.,4.8,0.,4.8
1986-01-24 00:24:03.830 ,6,0,0.,4.8,25.,4.8,0.,4.8,0.,4.8
1986-01-24 00:24:08.630 ,6,0,0.,4.8,27.,4.8,0.,4.8,0.,4.8
1986-01-24 00:24:13.430 ,6,0,0.,4.8,13.,4.8,0.,4.8,0.,4.8
1986-01-24 00:24:18.230 ,6,0,0.,4.8,22.,4.8,0.,4.8,0.,4.8
1986-01-24 00:24:23.030 ,6,0,0.,4.8,18.,4.8,0.,4.8,0.,4.8
1986-01-24 00:24:27.830 ,6,0,0.,4.8,25.,4.8,0.,4.8,0.,4.8
1986-01-24 00:24:32.630 ,6,0,0.,4.8,33.,4.8,0.,4.8,0.,4.8
1986-01-24 00:24:37.430 ,6,0,0.,4.8,34.,4.8,0.,4.8,0.,4.8
1986-01-24 00:24:42.230 ,6,0,0.,4.8,29.,4.8,1.,4.8,0.,4.8
1986-01-24 00:24:47.030 ,6,0,0.,4.8,34.,4.8,0.,4.8,0.,4.8
1986-01-24 00:24:51.830 ,5,0,0.,4.8,27.,4.8,0.,4.8,0.,4.8
1986-01-24 00:24:56.630 ,5,0,0.,4.8,22.,4.8,0.,4.8,0.,4.8
1986-01-24 00:25:01.430 ,5,0,0.,4.8,29.,4.8,0.,4.8,0.,4.8
1986-01-24 00:25:06.230 ,5,0,0.,4.8,31.,4.8,0.,4.8,0.,4.8
1986-01-24 00:25:11.030 ,5,0,0.,4.8,17.,4.8,1.,4.8,0.,4.8
1986-01-24 00:25:15.830 ,5,0,0.,4.8,31.,4.8,0.,4.8,0.,4.8
1986-01-24 00:25:20.630 ,5,0,0.,4.8,22.,4.8,0.,4.8,0.,4.8
1986-01-24 00:25:25.430 ,5,0,0.,4.8,16.,4.8,0.,4.8,0.,4.8
1986-01-24 00:25:30.230 ,5,0,0.,4.8,30.,4.8,0.,4.8,0.,4.8
1986-01-24 00:25:35.030 ,5,0,0.,4.8,35.,4.8,0.,4.8,0.,4.8
1986-01-24 00:25:39.830 ,4,0,0.,4.8,39.,4.8,0.,4.8,0.,4.8
1986-01-24 00:25:44.630 ,4,0,0.,4.8,26.,4.8,0.,4.8,0.,4.8
1986-01-24 00:25:49.430 ,4,0,0.,4.8,24.,4.8,0.,4.8,0.,4.8
1986-01-24 00:25:54.230 ,4,0,0.,4.8,22.,4.8,1.,4.8,0.,4.8
1986-01-24 00:25:59.030 ,4,0,0.,4.8,21.,4.8,0.,4.8,0.,4.8
1986-01-24 00:26:03.830 ,4,0,0.,4.8,32.,4.8,0.,4.8,0.,4.8
1986-01-24 00:26:08.630 ,4,0,0.,4.8,18.,4.8,0.,4.8,0.,4.8
1986-01-24 00:26:13.430 ,4,0,0.,4.8,30.,4.8,0.,4.8,0.,4.8
1986-01-24 00:26:18.230 ,4,0,0.,4.8,26.,4.8,0.,4.8,0.,4.8
1986-01-24 00:26:23.030 ,4,0,0.,4.8,26.,4.8,0.,4.8,0.,4.8
1986-01-24 00:26:27.830 ,3,0,0.,4.8,25.,4.8,1.,4.8,0.,4.8
1986-01-24 00:26:32.630 ,3,0,0.,4.8,35.,4.8,0.,4.8,0.,4.8
1986-01-24 00:26:37.430 ,3,0,0.,4.8,24.,4.8,0.,4.8,0.,4.8
1986-01-24 00:26:42.230 ,3,0,0.,4.8,33.,4.8,0.,4.8,0.,4.8
1986-01-24 00:26:47.030 ,3,0,0.,4.8,18.,4.8,1.,4.8,0.,4.8
1986-01-24 00:26:51.830 ,3,0,0.,4.8,35.,4.8,0.,4.8,0.,4.8
1986-01-24 00:26:56.630 ,3,0,0.,4.8,19.,4.8,0.,4.8,0.,4.8
1986-01-24 00:27:01.430 ,3,0,0.,4.8,18.,4.8,0.,4.8,0.,4.8
1986-01-24 00:27:06.230 ,3,0,0.,4.8,23.,4.8,0.,4.8,0.,4.8
1986-01-24 00:27:11.030 ,3,0,0.,4.8,25.,4.8,0.,4.8,0.,4.8
1986-01-24 00:27:15.830 ,2,0,0.,4.8,29.,4.8,0.,4.8,0.,4.8
1986-01-24 00:27:20.630 ,2,0,0.,4.8,26.,4.8,0.,4.8,0.,4.8
1986-01-24 00:27:25.430 ,2,0,0.,4.8,32.,4.8,0.,4.8,0.,4.8
1986-01-24 00:27:30.230 ,2,0,0.,4.8,28.,4.8,0.,4.8,0.,4.8
1986-01-24 00:27:35.030 ,2,0,0.,4.8,27.,4.8,0.,4.8,0.,4.8
1986-01-24 00:27:39.830 ,2,0,0.,4.8,34.,4.8,0.,4.8,0.,4.8
1986-01-24 00:27:44.630 ,2,0,0.,4.8,26.,4.8,0.,4.8,0.,4.8
1986-01-24 00:27:49.430 ,2,0,0.,4.8,24.,4.8,0.,4.8,0.,4.8
1986-01-24 00:27:54.230 ,2,0,0.,4.8,29.,4.8,0.,4.8,0.,4.8
1986-01-24 00:27:59.030 ,2,0,0.,4.8,25.,4.8,0.,4.8,0.,4.8
1986-01-24 00:28:03.830 ,1,0,0.,4.8,26.,4.8,0.,4.8,0.,4.8
1986-01-24 00:28:08.630 ,1,0,0.,4.8,31.,4.8,0.,4.8,0.,4.8
1986-01-24 00:28:13.430 ,1,0,0.,4.8,26.,4.8,0.,4.8,0.,4.8
1986-01-24 00:28:18.230 ,1,0,0.,4.8,34.,4.8,0.,4.8,0.,4.8
1986-01-24 00:28:23.030 ,1,0,0.,4.8,16.,4.8,0.,4.8,0.,4.8
1986-01-24 00:28:27.830 ,1,0,0.,4.8,30.,4.8,0.,4.8,0.,4.8
1986-01-24 00:28:32.630 ,1,0,0.,4.8,30.,4.8,0.,4.8,0.,4.8
1986-01-24 00:28:37.430 ,1,0,0.,4.8,25.,4.8,0.,4.8,0.,4.8
1986-01-24 00:28:42.230 ,1,0,0.,4.8,22.,4.8,0.,4.8,0.,4.8
1986-01-24 00:28:47.030 ,1,0,0.,4.8,31.,4.8,0.,4.8,0.,4.8
1986-01-24 00:28:51.830 ,0,0,0.,4.8,25.,4.8,0.,4.8,0.,4.8
1986-01-24 00:28:56.630 ,0,0,0.,4.8,20.,4.8,0.,4.8,0.,4.8
1986-01-24 00:29:01.430 ,0,0,0.,4.8,37.,4.8,0.,4.8,0.,4.8
1986-01-24 00:29:06.230 ,0,0,0.,4.8,23.,4.8,0.,4.8,0.,4.8
1986-01-24 00:29:11.030 ,0,0,0.,4.8,23.,4.8,0.,4.8,0.,4.8
1986-01-24 00:29:15.830 ,0,0,0.,4.8,26.,4.8,0.,4.8,0.,4.8
1986-01-24 00:29:20.630 ,0,0,0.,4.8,27.,4.8,0.,4.8,0.,4.8
1986-01-24 00:29:25.430 ,0,0,0.,4.8,21.,4.8,0.,4.8,0.,4.8
1986-01-24 00:29:30.230 ,0,0,0.,4.8,18.,4.8,0.,4.8,0.,4.8
1986-01-24 00:29:35.030 ,0,0,0.,4.8,23.,4.8,0.,4.8,0.,4.8
1986-01-24 00:29:39.830 ,0,0,0.,4.8,33.,4.8,0.,4.8,0.,4.8
1986-01-24 00:29:44.630 ,0,0,0.,4.8,31.,4.8,0.,4.8,0.,4.8
1986-01-24 00:29:49.430 ,0,0,0.,4.8,24.,4.8,0.,4.8,0.,4.8
1986-01-24 00:29:54.230 ,0,0,0.,4.8,24.,4.8,0.,4.8,0.,4.8
1986-01-24 00:29:59.030 ,0,0,0.,4.8,21.,4.8,1.,4.8,0.,4.8
1986-01-24 00:30:03.830 ,0,0,0.,4.8,26.,4.8,0.,4.8,0.,4.8
1986-01-24 00:30:08.630 ,0,0,0.,4.8,28.,4.8,0.,4.8,0.,4.8
1986-01-24 00:30:13.430 ,0,0,0.,4.8,19.,4.8,0.,4.8,0.,4.8
1986-01-24 00:30:18.230 ,0,0,0.,4.8,36.,4.8,0.,4.8,0.,4.8
1986-01-24 00:30:23.030 ,0,0,0.,4.8,20.,4.8,0.,4.8,0.,4.8
1986-01-24 00:30:27.830 ,1,0,0.,4.8,34.,4.8,0.,4.8,0.,4.8
1986-01-24 00:30:32.630 ,1,0,0.,4.8,23.,4.8,0.,4.8,0.,4.8
1986-01-24 00:30:37.430 ,1,0,0.,4.8,33.,4.8,0.,4.8,0.,4.8
1986-01-24 00:30:42.230 ,1,0,0.,4.8,30.,4.8,0.,4.8,0.,4.8
1986-01-24 00:30:47.030 ,1,0,0.,4.8,16.,4.8,0.,4.8,0.,4.8
1986-01-24 00:30:51.830 ,1,0,0.,4.8,24.,4.8,0.,4.8,0.,4.8
1986-01-24 00:30:56.630 ,1,0,0.,4.8,23.,4.8,0.,4.8,0.,4.8
1986-01-24 00:31:01.430 ,1,0,0.,4.8,31.,4.8,0.,4.8,0.,4.8
1986-01-24 00:31:06.230 ,1,0,0.,4.8,26.,4.8,0.,4.8,0.,4.8
1986-01-24 00:31:11.030 ,1,0,0.,4.8,27.,4.8,0.,4.8,0.,4.8
1986-01-24 00:31:15.830 ,2,0,0.,4.8,17.,4.8,0.,4.8,0.,4.8
1986-01-24 00:31:20.630 ,2,0,0.,4.8,23.,4.8,0.,4.8,0.,4.8
1986-01-24 00:31:25.430 ,2,0,0.,4.8,27.,4.8,0.,4.8,0.,4.8
1986-01-24 00:31:30.230 ,2,0,0.,4.8,32.,4.8,0.,4.8,0.,4.8
1986-01-24 00:31:35.030 ,2,0,0.,4.8,27.,4.8,0.,4.8,0.,4.8
1986-01-24 00:31:39.830 ,2,0,0.,4.8,14.,4.8,0.,4.8,0.,4.8
1986-01-24 00:31:44.630 ,2,0,0.,4.8,27.,4.8,0.,4.8,0.,4.8
1986-01-24 00:31:49.430 ,2,0,0.,4.8,27.,4.8,0.,4.8,0.,4.8
1986-01-24 00:31:54.230 ,2,0,0.,4.8,31.,4.8,0.,4.8,0.,4.8
1986-01-24 00:31:59.030 ,2,0,0.,4.8,21.,4.8,0.,4.8,0.,4.8
1986-01-24 00:32:03.830 ,3,0,0.,4.8,25.,4.8,0.,4.8,0.,4.8
1986-01-24 00:32:08.630 ,3,0,0.,4.8,28.,4.8,0.,4.8,0.,4.8
1986-01-24 00:32:13.430 ,3,0,0.,4.8,28.,4.8,0.,4.8,0.,4.8
1986-01-24 00:32:18.230 ,3,0,0.,4.8,25.,4.8,0.,4.8,0.,4.8
1986-01-24 00:32:23.030 ,3,0,0.,4.8,26.,4.8,0.,4.8,0.,4.8